[[{"header":{"parameterUnit":"m.s-1","parameterCategory":1,"la1":30.2992,"la2":30.254,"lo1":-89.0895,"lo2":-89.0443,"dy":0.0025,"dx":0.0025,"nx":19,"ny":19,"refTime":"2026-05-14T09:00:00:Z","depth":0,"parameterNumber":2,"parameterNumberName":"U-component_of_WINDS"},"data":[0,0,0,-4.3278,-4.3281,-4.343,-4.343,-4.3648,-4.365,0,0,0,0,0,0,0,0,0,0,0,-4.3251,-4.3253,-4.3277,-4.3282,-4.343,-4.343,-4.3647,-4.365,0,0,0,0,0,0,0,0,0,0,0,-4.325,-4.3252,-4.3255,-4.3282,-4.3429,-4.343,-4.3647,-4.3525,0,0,0,0,0,0,0,0,0,0,-4.3376,-4.3368,-4.3252,-4.3255,-4.3283,-4.3429,-4.343,-4.3519,-4.3533,-4.3593,0,-4.365,0,-4.3654,-4.3666,-4.3667,0,0,0,-4.3269,-4.3356,-4.3381,-4.3255,-4.3285,-4.3429,-4.3359,-4.3526,-4.3542,-4.3611,-4.3653,-4.366,-4.3657,-4.3668,-4.3669,-4.4056,-4.4058,0,0,-4.3261,-4.3286,-4.337,-4.3392,-4.3371,-4.3355,-4.3364,-4.3535,-4.3582,-4.3654,-4.3665,-4.3661,-4.3669,-4.3671,-4.4054,-4.4056,0,0,0,-4.3246,-4.3281,-4.3301,-4.3384,-4.3408,-4.3359,-4.337,-4.3575,-4.3579,-4.3667,-4.3663,-4.3671,-4.3674,-4.4051,-4.4055,-4.4196,0,0,0,-4.324,-4.3272,-4.3298,-4.3315,-4.3406,-4.3493,-4.3406,-4.3567,-4.3586,-4.3662,-4.3671,-4.3676,-4.4048,-4.4053,-4.4186,-4.4257,0,0,0,-4.3235,-4.3271,-4.3299,-4.3316,-4.3381,-4.349,-4.3504,-4.3571,-4.3585,-4.3667,-4.3677,-4.4046,-4.4052,-4.4177,-4.4243,-4.4364,0,0,0,-4.3237,-4.3423,-4.3302,-4.3508,-4.338,-4.3577,-4.3502,-4.3648,-4.3736,-4.3672,-4.4049,-4.4054,-4.4175,-4.4234,-4.4355,-4.4469,-4.4519,0,0,-4.3486,-4.3454,-4.3573,-4.3469,-4.3694,-4.3553,-4.3799,-4.3855,-4.3841,-4.3985,-4.3994,-4.4189,-4.4242,-4.4362,-4.4799,-4.4839,0,0,0,-4.366,-4.3746,-4.38,-4.3885,-4.3934,-4.398,-4.3997,-4.4019,-4.414,-4.392,-4.4267,-4.4297,-4.4367,-4.442,-4.4454,-4.4511,-4.4081,-4.408,-4.408,-4.4046,-4.4017,-4.4212,-4.4202,-4.4286,-4.4302,-4.4367,-4.4398,-4.4345,-4.4428,-4.4469,-4.4737,-4.48,-4.4826,-4.4886,-4.453,-4.453,-4.4531,-4.4531,-4.4405,-4.452,-4.4447,-4.4609,-4.4578,-4.4714,-4.4738,-4.4696,-4.4818,-4.4704,-4.4764,-4.4638,-4.4871,-4.4922,-4.4541,-4.454,-4.4538,-4.4537,-4.4537,-4.465,-4.47,-4.4724,-4.4844,-4.494,-4.4925,-4.5045,-4.5014,-4.4985,-4.5045,-4.5083,-4.5081,-4.5072,-4.5066,-4.5067,-4.5068,-4.5069,-4.507,-4.507,-4.4895,-4.4917,-4.5022,-4.509,-4.514,-4.5203,-4.5223,-4.5272,-4.5318,-4.5285,-4.5285,-4.5223,-4.4901,-4.4818,-4.5084,-4.5082,-4.508,-4.5079,-4.5078,-4.5262,-4.5174,-4.5336,-4.5387,-4.5465,-4.5562,-4.5522,-4.5624,-4.5661,-4.5721,-4.5648,-4.5415,-4.538,-4.5353,-4.5284,-4.5655,-4.5655,-4.5655,-4.5655,-4.5466,-4.5447,-4.5605,-4.5688,-4.5766,-4.5747,-4.5931,-4.595,-4.5955,-4.5976,-4.5919,-4.5826,-4.58,-4.578,-4.5743,-4.5678,-4.6141,-4.6142,-4.6142,-4.5689,-4.5676,-4.5837,-4.5841,-4.59,-4.5952,-4.6124,-4.6222,-4.6211,-4.6161,-4.5991,-4.597,-4.5821,-4.5774,-4.5716,-4.566,-4.554,0,0]},{"header":{"parameterUnit":"m.s-1","parameterCategory":1,"la1":30.2992,"la2":30.254,"lo1":-89.0895,"lo2":-89.0443,"dy":0.0025,"dx":0.0025,"nx":19,"ny":19,"refTime":"2026-05-14T09:00:00:Z","depth":0,"parameterNumber":3,"parameterNumberName":"V-component_of_WINDS"},"data":[0,0,0,2.1988,2.1987,2.1916,2.1915,2.1852,2.1852,0,0,0,0,0,0,0,0,0,0,0,2.2027,2.2027,2.1988,2.1986,2.1916,2.1915,2.1852,2.1852,0,0,0,0,0,0,0,0,0,0,0,2.2027,2.2027,2.2028,2.1986,2.1916,2.1915,2.1852,2.1895,0,0,0,0,0,0,0,0,0,0,2.1959,2.2014,2.2027,2.2028,2.1986,2.1916,2.1915,2.1897,2.1893,2.1896,0,2.1907,0,2.1879,2.185,2.1849,0,0,0,2.1972,2.2018,2.1983,2.2028,2.1986,2.1916,2.1944,2.1894,2.1889,2.1891,2.1906,2.1903,2.1878,2.1849,2.1849,2.1926,2.1927,0,0,2.1976,2.2024,2.1986,2.1981,2.1996,2.1946,2.1942,2.1891,2.1909,2.1905,2.1901,2.1877,2.1849,2.1849,2.1925,2.1927,0,0,0,2.1997,2.2027,2.1992,2.1984,2.1969,2.1944,2.1939,2.1911,2.1896,2.19,2.1876,2.1849,2.1848,2.1924,2.1926,2.2025,0,0,0,2.1998,2.204,2.1995,2.2024,2.1971,2.194,2.1962,2.19,2.1892,2.1876,2.1849,2.1848,2.1923,2.1925,2.202,2.2063,0,0,0,2.2025,2.2042,2.2039,2.2026,2.1998,2.194,2.1921,2.1897,2.1879,2.1849,2.1848,2.1922,2.1925,2.2015,2.2055,2.2097,0,0,0,2.2067,2.2127,2.2042,2.2099,2.1999,2.2003,2.1921,2.1921,2.1908,2.1849,2.1923,2.1926,2.2014,2.205,2.2093,2.214,2.2166,0,0,2.217,2.2141,2.2171,2.2092,2.2125,2.201,2.2055,2.1996,2.1948,2.1936,2.1937,2.2022,2.2055,2.2096,2.2292,2.2312,0,0,0,2.222,2.2242,2.224,2.2231,2.219,2.2156,2.2086,2.2064,2.2052,2.1953,2.2047,2.2065,2.2088,2.2108,2.2125,2.2141,2.1938,2.1937,2.1937,2.2432,2.237,2.2415,2.2344,2.2337,2.2264,2.2252,2.2209,2.2146,2.217,2.2165,2.2292,2.2318,2.2331,2.2348,2.2187,2.2187,2.2188,2.2188,2.2575,2.2596,2.2514,2.2528,2.2461,2.2471,2.2404,2.236,2.2358,2.229,2.2306,2.2237,2.2355,2.2366,2.2195,2.2194,2.2193,2.2192,2.2192,2.2706,2.2705,2.268,2.2661,2.2653,2.2579,2.2582,2.252,2.2461,2.2478,2.2466,2.2464,2.2453,2.2477,2.2478,2.2478,2.2478,2.2479,2.2479,2.2851,2.2819,2.283,2.2793,2.2779,2.2753,2.2682,2.2666,2.2632,2.2587,2.2586,2.2521,2.2379,2.2344,2.2485,2.2484,2.2483,2.2483,2.2482,2.3016,2.2969,2.2987,2.2974,2.2924,2.2921,2.2843,2.2816,2.2794,2.2797,2.2729,2.2635,2.26,2.2586,2.2556,2.2743,2.2743,2.2743,2.2743,2.3125,2.3103,2.3107,2.309,2.3067,2.2999,2.3019,2.2964,2.29,2.2882,2.2846,2.2802,2.2791,2.2762,2.2744,2.2715,2.2939,2.2939,2.2939,2.3223,2.3196,2.3225,2.3164,2.3121,2.3085,2.3102,2.3083,2.3,2.2946,2.2866,2.2858,2.2786,2.2766,2.2708,2.2681,2.2627,0,0]}]]